Location: Pl�tzky
(52.0521°N, 11.8020°E)
Time: 06:06:50
(UTC+00:00)

Cosmos 2322 Rocket - Pass Details

Date: 22 November 2019
Orbit: 833 x 851 km, 71.0° (Epoch: 05 December)

Event Time Altitude Azimuth Distance (km) Brightness Sun altitude
Rises 18:38:37 0° 216° (SW) 3,370 5.7 -31.0°
Reaches altitude 10° 18:41:03 10° 218° (SW) 2,440 4.9 -31.4°
Enters shadow 18:45:07 48° 235° (SW) 1,079 2.9 -32.0°
